Погода в Гурлене

Узбекистан     41°50′22″N   60°23′38″E
темп.,
°C
ветер,
м/с
пор.,
м/с
влажн.,
%
обл.,
%
осадки,
мм/ч
давл.,
гПа
погр.,
м
27 февраля, сб
сб2723:00−2ююз4822100 0.0 1028734
02:00−1ююз6122797 0.0 1026690
05:00−1ююз7134299 0.2 1024750
08:00−2юз8147998 0.2 1023519
11:000юз81188100 0.6 1025434
14:00+3юз71074100 0.1 1024545
17:00+4юз6107399 0.1 1023457
20:00+3ююз4973100 0.0 1024232
28 февраля, вс
вс2823:00+3ю596795 0.0 1024173
02:00+1ю446562 0.0 102370
05:000ю344833 0.0 102253
08:000ююв443826 0.0 102176
11:00+6ююв462754 0.0 1021333
14:00+11ю562159 0.0 1018776
17:00+12ююв452153 0.0 1017831
20:00+7юв34322 0.0 101744
1 марта, пн
пн123:00+6юв34421 0.0 101754
02:00+5ююв34440 0.0 101738
05:00+3ююв33470 0.0 101623
08:00+3ююв23490 0.0 101722
11:00+9ю22340 0.0 1017285
14:00+14зюз34240 0.0 1017877
17:00+15з45220 0.0 10161141
20:00+10з34310 0.0 101839
2 марта, вт
вт223:00+7ссв12420 0.0 102025
02:00+4с34750 0.0 102185
05:00+2с33900 0.0 102282
08:00+1с36891 0.0 1025243
11:00+5ссв34665 0.0 1026641
14:00+8ссз335537 0.0 10251052
17:00+8ссз445768 0.0 1024930
20:00+6с347098 0.0 1025410
3 марта, ср
ср323:00+4всв237686 0.0 102580
02:00+3в238074 0.0 102554
05:00+3в237982 0.0 102467
08:00+3вюв2478100 0.0 1023116
11:00+6юв346098 0.0 1023620
14:00+9ююв335025 0.0 10201139
17:00+10ююв235056 0.0 10181276
20:00+9вюв355492 0.0 1017188